This is the latest recevied weather packets stored in our database for station/object HK6REC-25. If no packets are shown the sender has not sent any weather packets the latest 10 day(s).
| Time | Temp. | Humidity | Pressure | Rain* | Wind** | Luminosity | Snow |
|---|---|---|---|---|---|---|---|
| 1778222211 | 12.78° C | 88% | 1014 hPa | 0 mm | - | - | - |
| 1778220410 | 13.89° C | 88% | 1015 hPa | 0 mm | - | - | - |
| 1778218609 | 15° C | 88% | 1015 hPa | 0 mm | - | - | - |
| 1778216808 | 13.89° C | 82% | 1015 hPa | 0 mm | - | - | - |
| 1778215007 | 15° C | 82% | 1015 hPa | 0 mm | - | - | - |
| 1778213206 | 16.11° C | 82% | 1015 hPa | 0 mm | - | - | - |
| 1778211405 | 13.33° C | 83% | 1015 hPa | 0 mm | - | - | - |
| 1778209604 | 14.44° C | 83% | 1015 hPa | 0 mm | - | - | - |
| 1778207803 | 15.56° C | 83% | 1014 hPa | 0 mm | - | - | - |
| 1778206002 | 16.67° C | 83% | 1014 hPa | 0 mm | - | - | - |
| 1778204200 | 13.89° C | 86% | 1014 hPa | 0 mm | - | - | - |
| 1778202399 | 15° C | 86% | 1014 hPa | 0 mm | - | - | - |
| 1778200598 | 14.44° C | 81% | 1013 hPa | 0 mm | - | - | - |
| 1778198797 | 14.44° C | 70% | 1012 hPa | 0 mm | - | - | - |
| 1778196996 | 15.56° C | 70% | 1012 hPa | 0 mm | - | - | - |
| 1778195195 | 16.67° C | 70% | 1011 hPa | 0 mm | - | - | - |
| 1778193394 | 17.78° C | 70% | 1011 hPa | 0 mm | - | - | - |
| 1778191593 | 18.89° C | 70% | 1010 hPa | 0 mm | - | - | - |
| 1778189792 | 20° C | 70% | 1010 hPa | 0 mm | - | - | - |
| 1778187991 | 20° C | 71% | 1009 hPa | 0 mm | - | - | - |
| 1778186190 | 18.89° C | 65% | 1009 hPa | 0 mm | - | - | - |
| 1778184389 | 21.11° C | 64% | 1009 hPa | 0 mm | - | - | - |
| 1778182588 | 22.22° C | 64% | 1008 hPa | 0 mm | - | - | - |
| 1778180787 | 22.22° C | 60% | 1009 hPa | 0 mm | - | - | - |
| 1778178986 | 23.33° C | 60% | 1009 hPa | 0 mm | - | - | - |
* Rain latest hour (hover to see other rain measurements)
** Current wind speed in m/s (hover to see current wind gust speed)